1st Responders/1st Detectors/Storm Spotters Weather Summary for Harrison County, KY

Forecast Maps


Reg. NEXRAD Animation


National Fire Danger: Day 1 & 2 Map

Current NWS Watch/Warnings

SPC Convective Day 1 Outlook


Day 2 Outlook

(Click images to enlarge|Page will refresh every 5 minutes)
UK Ag. Weather Center Desktop Severe Weather Service[HERE]
Harrison County, KY Hazardous Weather Outlook Webcast
(9 AM to 9 PM Mon-Fri)
[Fast]
[Dial-up]


UKAWC 1st Detectors/1st Responders Precision Weather Forecast For HARRISON County, Kentucky
(based on the NWS County Digital Forecast)

ISSUED AT 10:00 UTC ON SATURDAY DEC 16 2017
DAY SATURDAY
EDT 3HR 7A 8A 9A 10A 11A NOON 1P 2P 3P 4P 5P 6P 7P
MAX/MIN -- 27° -- -- -- -- -- -- -- -- -- -- 49°
TEMP 27° 27° 29° 32° 36° 40° 43° 47° 49° 49° 49° 47° 43°
SKY COVER 18% 17% 15% 14% 12% 11% 9% 7% 7% 7% 8% 8% 8%
Clouds
DEW PT 22° 22° 23° 25° 25° 27° 27° 29° 29° 29° 29° 29° 29°
RH 84% 81% 77% 71% 67% 58% 52% 49% 45% 46% 47% 48% 55%
POP 12HR -- 0% -- -- -- -- -- -- -- -- -- -- --
RAIN/SNOW (liq.equ) -- 0.00in -- -- -- -- -- 0.00in -- -- -- -- --
SNOWFALL -- 0in -- -- -- -- -- 0in -- -- -- -- --
WIND SPEED(MPH) 8 9 9 10 13 14 14 14 14 13 10 9 8
WIND Gust(MPH) 13 14 15 15 18 21 23 23 22 21 18 15 13
WIND DIR SW SW SW SW SW SW SW SW SW SW SW SW SW
DEW Freeze Freeze Frost -- -- -- -- -- -- -- -- -- --
HeatIndex 18 18 21 24 27 32 37 47 49 49 49 47 38
Rain Showers -- -- -- -- -- -- -- -- -- -- -- -- --
WIND CHILL 19° 18° 21° 24° 28° 32° 36° -- -- -- -- -- 38°
SPRAY COND
DRY COND
LIVESTOCK COLDSTRESS



DAY SUNDAY MONDAY TUESDAY WEDNESDAY THURSDAY FRIDAY
EDT 6HR 8P 9P 10P 11P MIDN 1A 2A 3A 4A 5A 6A 7A 8A 9A 10A 11A NOON 1P 2P 3P 4P 5P 6P 8P 11P 2A 5A 8A 11A 2P 5P 8P 2A 8A 2P 8P 2A 8A 2P 8P 2A 8A 2P 8P 2A 8A 2P 8P
MAX/MIN -- -- -- -- -- -- -- -- -- -- -- -- 31° -- -- -- -- -- -- -- -- -- 45° -- -- -- -- 36° -- -- 52° -- -- 41° 54° -- -- 29° 47° -- -- 31° 54° -- -- 40° 49° --
TEMP 40° 38° 36° 36° 34° 34° 34° 32° 31° 31° 31° 31° 31° 32° 36° 38° 40° 43° 45° 45° 43° 43° 41° 40° 36° 38° 38° 38° 43° 49° 52° 47° 43° 41° 54° 47° 38° 31° 45° 38° 31° 31° 50° 49° 45° 43° 49° 40°
SKY COVER 9% 10% 10% 11% 12% 12% 13% 25% 36% 48% 60% 71% 83% 89% 94% 100% 100% 100% 100% 100% 100% 100% 100% 100% 93% 85% 90% 87% 83% 87% 78% 77% 62% 65% 55% 41% 11% 6% 10% 29% 29% 38% 48% 52% 73% 87% 84% 84%
Clouds
DEW PT 29° 29° 29° 27° 27° 27° 27° 27° 27° 27° 29° 29° 29° 29° 29° 31° 31° 31° 32° 34° 34° 34° 36° 36° 34° 36° 36° 36° 40° 43° 41° 41° 40° 40° 40° 34° 29° 25° 23° 25° 23° 25° 38° 38° 38° 38° 36° 31°
RH 61% 66% 72% 72% 75% 75% 77% 81% 85% 84% 92% 92% 88% 88% 79% 75% 70% 65% 62% 65% 67% 73% 79% 85% 92% 92% 95% 96% 88% 76% 68% 79% 89% 96% 58% 63% 70% 77% 42% 58% 72% 78% 61% 65% 76% 78% 58% 67%
POP 12HR 0% -- -- -- -- -- -- -- -- -- -- -- 1% -- -- -- -- -- -- -- -- -- -- 56% -- -- -- 11% -- -- -- 14% -- 10% -- 10% -- 1% -- 2% -- 2% -- 11% -- 56% -- 54%
RAIN/SNOW (liq.equ) 0.00in -- -- -- -- -- 0.00in -- -- -- -- -- 0.00in -- -- -- -- -- 0.00in -- -- -- -- 0.05in -- 0.00in -- 0.00in -- 0.00in -- 0.00in -- -- -- -- -- -- -- -- -- -- -- -- -- -- -- --
SNOWFALL 0in -- -- -- -- -- 0in -- -- -- -- -- 0in -- -- -- -- -- 0in -- -- -- -- 0in -- 0in -- 0in -- 0in -- 0in -- -- -- -- -- -- -- -- -- -- -- -- -- -- -- --
WIND SPEED(MPH) 7 7 7 7 7 7 7 6 6 6 6 5 5 5 6 6 6 7 7 7 6 6 6 5 5 5 5 5 6 8 7 7 7 7 13 7 7 6 5 5 6 6 9 8 9 8 10 7
WIND DIR SW SW S S S S S S S S S S S S S S S S S S S S S S S SW SW SW SW SW SW SW SW SW W W W NW W S SE S S S SW SW W W
HeatIndex 35 34 31 30 29 29 27 27 26 26 25 26 27 28 31 33 37 38 41 41 40 39 38 36 33 34 34 34 39 49 52 47 40 37 54 47 32 25 42 34 26 26 50 49 39 38 49 35
Rain Showers -- -- -- -- -- -- -- -- -- -- -- -- -- -- -- Chance Chance Chance Likely Likely Likely Likely Likely -- -- -- -- -- -- -- -- -- -- -- -- -- -- -- -- -- -- -- -- -- Likely Chance Chance Chance
WIND CHILL 35° 33° 30° 30° 28° 28° 28° 27° 25° 25° 25° 26° 26° 28° 31° 34° 36° 39° 41° 41° 39° 39° 37° 37° 32° 35° 35° 35° 39° -- -- -- 39° 36° -- -- 33° 25° 43° 35° 25° 25° -- -- 40° 38° -- 35°
SPRAY COND
DRY COND
LIVESTOCK COLDSTRESS

Click on individual weather variable above in left-hand column (ie., TEMP, RH, QPF 12HR) to view state forecast maps






NWS 48 Hr. Forecast Maps,

Regional Hourly Observations For HARRISON County, Kentucky
Issued at 500 AM EST SAT DEC 16 2017
NORTHEAST KENTUCKY
  
CITY           SKY/WX    TMP DP  RH WIND       PRES   REMARKS
LEXINGTON      CLEAR     32  23  69 S10       30.12F WCI  24          
COVINGTON      CLOUDY    33  25  72 S9        30.05F WCI  25          
FRANKFORT      CLEAR     33  22  63 SW10      30.11S WCI  25          


Current NOWCAST not available:
Nowcasts are not issued routinely during fair weather. Only when
precipitation or other significant weather is occuring in this county will these
forecasts be issued. Currently, there is no short term forecast in effect.


Fire Weather Forecast For HARRISON County, KY
Provided by the National Weather Service:

Issued at: Sat Dec 16 05:05:01 EST 2017


                      Today        Tonight      Sun          

CLOUD COVER           MClear       MClear       Cloudy       
PRECIP TYPE           NONE         NONE         showers      
CHANCE PRECIP (%)     0            0            50           
TEMP (24H TREND)      51 (+16)     31 (+3)      45           
RH % (24H TREND)      42 (-10)     89 (+8)      61           
20FTWND-VAL/AM(MPH)   SW 10 G21                 Lgt/Var      
20FTWND-RDG/PM(MPH)   SW 10 G21    SW  6        Lgt/Var      
PRECIP AMOUNT         0.00         0.00         0.06         
MIXING HGT(FT-AGL/MSL)3135                      1907         
TRANSPORT WND (MPH)   SW 25                     S 15         
VENT RATE (KT-FT)     71714                     32419        
DISPERSION            Good                      Marginal     
DSI                   STBL         STBL         STBL         
LAL                   1            1            1            
HAINES INDEX          3            4            3            
ADI EARLY             45 GEN GOOD  6 VERY POOR  13 GEN POOR  
ADI LATE              58 GEN GOOD  6 VERY POOR  20 GEN POOR  
MAX LVORI EARLY       4            4            4            
MAX LVORI LATE        2            5            4            

REMARKS...ADI IS ATMOSPHERIC DISPERSION INDEX BY LAVDAS.        
LVORI IS LOW VISIBILITY OCCURRENCE RISK INDEX.

.MONDAY...Mostly cloudy. Lows in the upper 30s. Highs in the
lower 50s. South winds around 5 mph. 
.TUESDAY...Mostly cloudy. Lows in the lower 40s. Highs in the mid
50s. Southwest winds around 5 mph. 
.WEDNESDAY...Partly cloudy. Lows in the lower 30s. Highs in the
upper 40s. Northeast winds around 5 mph. 
.THURSDAY...Partly cloudy. Lows in the lower 30s. Highs in the
mid 50s. South winds 5 to 10 mph. 
.FRIDAY...Mostly cloudy with a 50 percent chance of rain showers.
Lows around 40. Highs in the lower 50s. West winds 5 to 10 mph. 

SPC's Fire Weather Web Tool (Excellent!), SPC's Fire Weather Outlooks, NWS Fire Weather WEB, Fire Danger Class Map,
Keetch-Byram Drought Index, ROMAN Web, Haines Index ,
WFAS's 10-hr Dead Fuel Moist., WFAS's 100-hr Dead Fuel Moist., Probablity of Ignition, Visual blackness Map, Palmer Drought Index, HPC's Rainfall Forecast Maps


Hazardous Weather Outlook For HARRISON County, Kentucky
257 AM EST Sat Dec 16 2017 /157 AM CST Sat Dec 16 2017/

 DAY ONE  Today and Tonight.

No hazardous weather is expected at this time. 

 DAYS TWO THROUGH SEVEN  Sunday through Friday.

No hazardous weather is expected at this time. 

 SPOTTER INFORMATION STATEMENT  

Spotter activation is not anticipated.

Latest HARRISON County, Kentucky Watches, Warnings and Advisories.
Additional Drought Info.: UKAWC Drought Page, Kentucky Drought Watch


7-Day Forecast For HARRISON County, KY

TODAY
Mostly sunny. Highs around 50. Southwest winds 10 to 15 mph.

TONIGHT
Mostly clear. Lows in the lower 30s. South winds 5 to 10 mph.

SUNDAY
Rain showers likely. Highs in the mid 40s. South winds 5 to 10 mph. Chance of showers 60 percent.

SUNDAY NIGHT
Cloudy. Lows in the upper 30s. Southwest winds around 5 mph.

MONDAY
Mostly cloudy. Highs in the lower 50s. Southwest winds 5 to 10 mph.

MONDAY NIGHT
Partly cloudy. Lows in the lower 40s.

TUESDAY
Partly cloudy. Highs in the mid 50s.

TUESDAY NIGHT
Partly cloudy. Lows in the lower 30s.

WEDNESDAY
Partly cloudy with a 20 percent chance of rain showers. Highs in the upper 40s.

WEDNESDAY NIGHT
Partly cloudy with a 20 percent chance of rain showers. Lows in the lower 30s.

THURSDAY
Partly cloudy. Highs in the lower 50s.

THURSDAY NIGHT
Partly cloudy with a 40 percent chance of rain showers. Lows in the upper 30s.

FRIDAY
Mostly cloudy with a 50 percent chance of rain showers. Highs in the lower 50s.

Ag Weather Center, Department of Biosystems & Agricultural Engineering, University of Kentucky